Flag for Austria Weather past 2 weeks in Bruck an der Leitha, Lower Austria, Austria

Now
33 °F

Overcast.


Feels Like: 27 °F
Forecast: 22 / 38 °F
Wind: 7 mph from Northwest

Location: Wien / Schwechat-Flughafen

Current Time: Jan 26, 2015 at 6:20:56 AM

Latest Report: Jan 26, 2015 at 5:00 AM


Visibility: 22 mi

Pressure: 30.31 "Hg

Humidity: 77%

Dew point: 27 °F

Location of Bruck an der LeithaLocation

Historic Weather in Bruck an der Leitha — Graph

°F

Bruck an der Leitha temperature yesterday

Maximum temperature yesterday: 36 °F (at 5:00 PM)
Minimum temperature yesterday: 32 °F (at 7:00 AM)
Average temperature yesterday: 34 °F

Past Weeks' High & Low Weather Summary

 TemperatureHumidityPressure
High53 °F (Jan 17, 6:00 AM)100% (Jan 20, 3:00 AM)30.31 "Hg (Jan 20, 3:00 AM)
Low27 °F (Jan 14, 5:00 AM)48% (Jan 12, 9:00 PM)29.73 "Hg (Jan 17, 6:00 AM)
Average38 °F83%30.03 "Hg
* Reported Jan 11 3:00 AM — Jan 26 3:00 AM, Bruck an der Leitha, Weather by CustomWeather, © 2014

Note: Actual official high and low records may vary slightly from our data, if they occured in-between our weather recording intervals... More about our weather records

Advertising

Bruck an der Leitha weather history for previous 24 hours

 ConditionsComfort  
Time TempWeatherWind HumidityBarometerVisibility
3:00 AM
Jan 26
35 °FOvercast.7 mph77%30.31 "Hg28 mi
2:00 AM35 °FPassing clouds.7 mph80%30.31 "Hg25 mi
1:00 AM35 °FPassing clouds.7 mph78%30.29 "Hg22 mi
12:00 AM35 °FPassing clouds.7 mph80%30.30 "Hg11 mi
11:00 PM
Jan 25
35 °FPassing clouds.8 mph77%30.29 "Hg22 mi
9:00 PM36 °FPassing clouds.9 mph75%30.27 "Hg19 mi
8:00 PM36 °FPassing clouds.9 mph74%30.27 "Hg28 mi
7:00 PM36 °FPassing clouds.10 mph69%30.25 "Hg25 mi
6:00 PM36 °FOvercast.9 mph70%30.24 "Hg25 mi
5:00 PM36 °FOvercast.10 mph71%30.22 "Hg28 mi
4:00 PM36 °FOvercast.10 mph79%N/A19 mi
3:00 PM36 °FRain. Overcast.12 mph87%30.19 "Hg7 mi
2:00 PM35 °FLow clouds.9 mph88%30.18 "Hg11 mi
1:00 PM34 °FLight snow. Overcast.8 mph91%30.18 "Hg4 mi
12:00 PM34 °FOvercast.9 mph89%30.19 "Hg6 mi
11:00 AM34 °FLight snow. Low clouds.10 mph88%30.19 "Hg3 mi
10:00 AM33 °FLight snow. Low clouds.9 mph95%30.18 "Hg1 mi
9:00 AM33 °FLight snow. Low clouds.9 mph91%30.15 "Hg2 mi
8:00 AM32 °FHeavy snow. Low clouds.9 mph95%30.14 "Hg1 mi
7:00 AM32 °FLight snow. Low clouds.9 mph90%30.12 "Hg3 mi
6:00 AM32 °FLight snow. Low clouds.9 mph92%30.11 "Hg3 mi
Weather by CustomWeather, © 2014

See weather overviewHow to use our weather pages